Bakewell, Tennessee
Current Conditions -  °F | °C
As of 3:35 AM on Sunday 26 Oct 2014 (Local Time) from KRZR Reporting Station
Clear Clear  
Wind Chill: 52°   Ceiling: Unl
Heat Index: 52°   Visibility: 5mi
Dew Point: 48°   Wind: 0mph
Humidity: 88%   Direction: NA
Pressure: 30.02"   Gusts: NA
Location:  35.34°N, 85.13°W
Report Text: KRZR 260735Z AUTO 00000KT 5SM CLR 11/09 A3002 RMK
Loading
Personal Weather Stations






























Interactive Weather Map
Tropical Storm Tracking
New forecast layout! Learn more

10-Day Weather Forecast

Advertisements
Track Severe Weather on mobile